Вернуться в каталог

STARLINK-36557

АктивенСвязьVLEO
NORAD 67500·PAYLOAD·🇺🇸 United States

Запущен Jan 18, 2026 с Cape Canaveral Space Force Station

Loading…

Ближайшие Пролёты (ближайшие 24 часа)

TLE

СвежийSource: CelesTrak SupGP

Эпоха: Sep 15, 2026, 03:29 UTC

1 67500C 26012H   26258.14562500  .00040030  00000+0  14496-2 0  2585
2 67500  43.0012 324.4902 0001501 261.7096 193.8733 15.27565489    19

Отслеживайте STARLINK-36557 в реальном времени с AllMySat

Download on the App Store